Regional Weather Roundup
Issued by NWS

Home | Current Version | Previous Version | Graphics & Text | Print | Product List | Glossary On
Versions: 1 2 3 4 5 6 7 8 9 10 11 12 13 14 15 16 17 18 19 20 21 22 23 24 25 26 27 28 29 30 31 32 33 34 35 36 37 38 39 40 41 42 43 44 45 46 47 48 49 50
000
ASUS45 KSLC 170510
RWRUT

UTAH REGIONAL WEATHER ROUNDUP
NATIONAL WEATHER SERVICE SALT LAKE CITY UT
1100 PM MDT WED AUG 16 2017

UTZ001>011-023>025-170600-

NORTHERN UTAH

CITY           SKY/WX    TMP DP  RH WIND       PRES   REMARKS
BRIGHAM CITY   PTCLDY    70  41  34 CALM      30.05S
HILL AFB       PTCLDY    71  37  28 E13       30.08R
LOGAN          PTCLDY    69  47  45 CALM      30.06R
OGDEN          PTCLDY    71  39  31 S10       30.05R
SALT LAKE CITY PTCLDY    76  40  27 S7        30.04R
TOOELE VALLEY  PTCLDY    64  37  36 SE9       30.06S
WENDOVER       MOCLDY    74  43  32 NE6       30.04R
HEBER CITY     CLEAR     54  41  62 CALM      30.16R
WEST JORDAN    PTCLDY    71  48  43 SE8       30.09R

$$

UTZ011>015-024>027-170600-

CENTRAL/NORTHEAST UTAH

CITY           SKY/WX    TMP DP  RH WIND       PRES   REMARKS
PROVO AIRPORT  PTCLDY    65  44  46 SE3       30.09R
MOAB/CANYONLAN MOCLDY    76  30  18 CALM      30.04R
DELTA          CLOUDY    70  36  28 S7        30.10R
PRICE          CLEAR     66  40  38 N10       30.17S
ROOSEVELT      CLOUDY    63  48  59 SW9       30.16S
VERNAL         CLEAR     65  42  43 SW8       30.13S

$$

UTZ013>016-019>022-027-170600-

SOUTHERN UTAH

CITY           SKY/WX    TMP DP  RH WIND       PRES   REMARKS
BRYCE CANYON   MOCLDY    52  43  71 W8        30.31R
CEDAR CITY     MOCLDY    64  42  44 W3        30.15S
MILFORD        PTCLDY    65  34  31 NW6       30.12R
ST GEORGE      CLEAR     81  39  22 SE5       29.96R
HANKSVILLE     PTCLDY    73  32  21 CALM      30.07S
BLANDING       CLEAR     62  31  30 N7        30.23S

$$

REGIONAL REPORTS     COLORADO/ARIZONA

CITY           SKY/WX    TMP DP  RH WIND       PRES   REMARKS
CRAIG, CO      CLEAR     51  42  71 CALM      30.21R
GRAND JUNCTION CLOUDY    70  38  31 E5        30.08R
RIFLE, CO      CLEAR     65  39  38 SE10      30.15R
MONTROSE, CO   CLOUDY    63  42  46 S7        30.18R
CORTEZ, CO     CLEAR     57  30  35 NE9       30.18R
COLORADO CITY    N/A     61  43  51 SE3       30.13R
PAGE, AZ       CLEAR     80  31  16 S7        30.03R
GRAND CANYON   CLEAR     53  36  52 CALM      30.26R
KINGMAN, AZ    CLEAR     74  37  26 S9        30.02R
FLAGSTAFF, AZ  CLEAR     54  42  64 CALM      30.30R

$$

REGIONAL REPORTS    NEVADA/IDAHO/WYOMING

CITY           SKY/WX    TMP DP  RH WIND       PRES   REMARKS
LAS VEGAS, NV  PTCLDY    90  37  15 S3        29.90R
ELY, NY        PTCLDY    54  43  66 SE7       30.22R
ELKO, NV       MOCLDY    70  37  29 CALM      30.10R
POCATELLO, ID  CLEAR     69  37  30 S8        30.05R
BURLEY, ID     CLEAR     61  47  59 SW12      30.03R
FORT BRIDGER,    N/A     63  34  34 SW8       30.28R
EVANSTON, WY   CLOUDY    59  40  49 SE6       30.26R
ROCK SPRINGS,  CLOUDY    64  38  38 SW14      30.21R
KEMMERER, WY     N/A     55  36  47 N6        30.26S

$$



USA.gov is the U.S. government's official web portal to all federal, state and local government web resources and services.